Location: Unspecified
(34.4652°N, 0.0000°E)
Time: 08:53:06
(UTC+00:00)

deb HAPS - Visible Passes

Search period start: 04 April 2026 00:00
Search period end: 14 April 2026 00:00
Orbit: 582 x 811 km, 82.0° (Epoch: 29 March)

Date Brightness Start Highest point End Pass type
(mag) Time Alt. Az. Time Alt. Az. Time Alt. Az.
4 Apr ? 18:45:13 10° NE 18:46:49 12° ENE 18:48:26 10° E visible
4 Apr ? 20:22:10 10° NNW 20:26:32 51° W 20:28:33 30° SSW visible
5 Apr ? 19:24:29 10° N 19:28:46 41° E 19:32:13 16° SE visible
5 Apr ? 21:05:28 10° NW 21:07:57 15° W 21:10:30 10° WSW visible
6 Apr ? 20:05:59 10° NNW 20:10:25 53° W 20:14:52 11° S visible
7 Apr ? 19:08:18 10° N 19:12:39 40° E 19:17:13 10° SSE visible
7 Apr ? 20:49:12 10° NW 20:51:50 15° W 20:54:33 10° WSW visible
8 Apr ? 19:49:47 10° NNW 19:54:18 54° W 19:59:06 10° S visible
9 Apr ? 18:52:07 10° N 18:56:31 40° E 19:01:10 10° SSE visible
9 Apr ? 20:32:56 10° NW 20:35:43 16° W 20:38:35 10° SW visible
10 Apr ? 19:33:35 10° NNW 19:38:10 56° W 19:43:02 10° S visible
11 Apr ? 20:16:40 10° NW 20:19:35 16° W 20:22:37 10° SW visible
12 Apr ? 19:17:23 10° NNW 19:22:02 57° W 19:27:00 10° S visible
13 Apr ? 20:00:23 10° NW 20:03:27 17° W 20:06:37 10° SW visible
